Regional Weather Roundup
Issued by NWS

Home | Current Version | Previous Version | Text Only | Print | Product List | Glossary On
Versions: 1 2 3 4 5 6 7 8 9 10 11 12 13 14 15 16 17 18 19 20 21 22 23 24 25 26 27 28 29 30 31 32 33 34 35 36 37 38 39 40 41 42 43 44 45 46 47 48 49 50
114
ASUS43 KDTX 241710
RWRMI
MICHIGAN HOURLY REGIONAL WEATHER ROUNDUP
NATIONAL WEATHER SERVICE DETROIT/PONTIAC MI
100 PM EDT TUE MAY 24 2016

NOTE: "FAIR" INDICATES FEW OR NO CLOUDS BELOW 12,000 FEET WITH NO
SIGNIFICANT WEATHER AND/OR OBSTRUCTION TO VISIBILITY.

MIZ047>049-052>055-059>063-066>070-074>076-081>083-241800-
SOUTHEAST LOWER MICHIGAN

CITY           SKY/WX    TMP DP  RH WIND       PRES   REMARKS
ADRIAN         SUNNY     80  50  34 W9G17     30.05F
ALMA           SUNNY     80  49  33 W12G18    30.01S
ANN ARBOR      SUNNY     79  51  37 S7        30.03F
BAD AXE        SUNNY     80  47  31 W5        30.00S
CARO           SUNNY     82  50  33 SW8       29.99F
DETROIT CITY   SUNNY     80  44  27 W7        30.03F
DETROIT        MOSUNNY   80  46  30 S9        30.04S
FLINT          SUNNY     84  49  29 SW10      30.01S
GROSSE ILE     SUNNY     73  54  49 S9        30.03F
HILLSDALE      SUNNY     79  39  23 W7        30.05F
HOWELL         SUNNY     81  47  30 SW9       30.03S

CITY           SKY/WX    TMP DP  RH WIND       PRES   REMARKS
JACKSON        SUNNY     81  50  33 W7        30.03F
LAMBERTVILLE   SUNNY     82  46  28 W9        30.05S
LANSING        SUNNY     82  50  32 W10       30.02S
LAPEER         FAIR      81  44  27 SW10      30.02S
MASON          SUNNY     81  52  36 W7        30.03S
MONROE         SUNNY     82  49  32 W13       30.03F
MT. CLEMENS    MOSUNNY   81  47  29 VRB3      30.01F
PONTIAC        MOSUNNY   80  47  31 VRB5      30.02F
PORT HOPE        N/A     81  49  32 VRB5      29.96F
PORT HURON     SUNNY     79  43  27 CALM      30.02F
TRI CITIES     SUNNY     84  51  31 SW7       30.00S
MIDLAND        FAIR      83  49  30 SW5       29.98R
TROY           SUNNY     82  41  23 W8        30.04F
SAGINAW HB     SUNNY     82  45  26 W9        29.99S
$$
MIZ043>046-050>051-056>058-064>065-071>073-077>080-241800-
SOUTHWEST LOWER MICHIGAN

CITY           SKY/WX    TMP DP  RH WIND       PRES   REMARKS
BATTLE CREEK   SUNNY     80  50  34 W12       30.04S
BENTON HARBOR  SUNNY     79  52  38 W15G22    30.03S
BIG RAPIDS     SUNNY     79  48  33 SW10G16   29.98F
COLDWATER      SUNNY     80  50  34 W12       30.04F
FREMONT        FAIR      81  48  30 SW9G17    29.99F
HOLLAND        SUNNY     79  53  40 SW10      30.02F
GRAND RAPIDS   PTSUNNY   83  50  31 W7        30.02F
IONIA          FAIR      81  47  31 W12G17    30.01F
KALAMAZOO      MOSUNNY   80  52  37 W9        30.04S
LUDINGTON      SUNNY     78  51  38 S12       29.97S
MARSHALL       SUNNY     83  54  37 W7        30.03F
MOUNT PLEASANT SUNNY     82  51  33 W3        29.98F
MUSKEGON       PTSUNNY   75  50  41 S10       30.01F
SOUTH HAVEN    SUNNY     79  49  34 SW9       30.02F
$$
MIZ016>042-241800-
NORTHERN LOWER MICHIGAN

CITY           SKY/WX    TMP DP  RH WIND       PRES   REMARKS
ALPENA         SUNNY     86  43  22 W9G21     29.93F
BEAVER ISLAND  CLOUDY    71  48  43 W10       29.94R
BELLAIRE       MOSUNNY   82  46  27 W7        29.94S
CADILLAC       SUNNY     82  48  31 SW12G20   29.97F
CHARLEVOIX     MOSUNNY   77  47  34 SW8       29.97F
FRANKFORT      MOSUNNY   76  51  40 SW10G16   29.95F
GAYLORD        CLOUDY    83  44  25 SW14G25   29.96S
GRAYLING       SUNNY     83  46  26 SW7G17    29.97S
HARBOR SPRINGS MOSUNNY   74  47  39 SW7       29.95R
HOUGHTON LAKE  SUNNY     83  47  28 W9        29.98S
MANISTEE       CLOUDY    82  48  30 SW14G21   29.96F
OSCODA         SUNNY     86  44  22 SW8       29.94F
PELLSTON       MOSUNNY   80  49  33 SW10      29.94R
ROGERS CITY    SUNNY     74  44  33 NE6       29.93F
TRAVERSE CITY  PTSUNNY   85  46  25 SW9       29.93F
$$
MIZ007>008-015-241800-
EASTERN UPPER MICHIGAN

CITY           SKY/WX    TMP DP  RH WIND       PRES   REMARKS
KINROSS          N/A     79  50  36 SW7       29.91S
MACKINAC ISLAN PTSUNNY   69  46  43 W8        29.93S
NEWBERRY       PTSUNNY   74  57  55 CALM      29.91S HAZE
S. S. MARIE    PTSUNNY   74  50  42 NE5       29.90S
MUNISING         N/A     56  53  90 NW5       29.92S
$$
MIZ004>006-011>014-085-241800-
CENTRAL UPPER MICHIGAN

CITY           SKY/WX    TMP DP  RH WIND       PRES   REMARKS
MANISTIQUE     MOSUNNY   56  48  73 S8        29.93S
ESCANABA       CLOUDY    66  54  63 S8        29.90F
MENOMINEE      CLOUDY    75  54  46 S8        29.90F
SAWYER-GWINN   CLOUDY    64  59  82 S3        29.92S
$$
MIZ001>003-009>011-084-241800-
WESTERN UPPER MICHIGAN

CITY           SKY/WX    TMP DP  RH WIND       PRES   REMARKS
IRON MOUNTAIN  LGT RAIN  75  59  57 S12       29.89F
HOUGHTON       RAIN      62  59  90 CALM      29.91R FOG
COPPER HARBOR    N/A     56  55  97 CALM      29.90F
$$

ABBREVIATIONS USED IN REMARKS
   TC - TEMPERATURE IN CELSIUS
  WCI - WIND CHILL INDEX
   HX - HEAT INDEX
  VSB - VISIBILITY





USA.gov is the U.S. government's official web portal to all federal, state and local government web resources and services.